#timestamp,LO_Frequency,Hit,StdDev 
1538600415.9,286047007.2,N
1538600435.7,286047006.2,N
1538600455.5,286047004.9,N
1538600475.4,286047003.7,N
1538600495.2,286047002.3,N
1538600515.0,286047003.7,N
1538600516.0,286047003.7,N
1538600535.8,286047002.9,N
1538600555.6,286047001.3,N
1538600575.5,286047001.8,N
1538600595.3,286047003.6,N
1538600615.1,286047007.0,N
1538600635.9,286047003.3,N
1538600655.7,286047002.7,N
1538600675.5,286047004.3,N
1538600695.4,286047002.2,N
1538600715.2,286047004.4,N
1538600735.1,286047000.1,N
1538600736.0,286047000.1,N
1538600755.8,286047003.1,N
1538600775.6,286047003.7,N
1538600795.5,286047000.1,N
1538600815.3,286047002.4,N
1538600835.1,286047003.8,N
1538600855.9,286047001.3,N
1538600875.7,286047002.2,N
1538600895.6,286047000.4,N
1538600915.4,286047001.1,N
1538600935.2,286046999.3,N
1538600955.1,286046998.5,N
1538600956.0,286046998.5,N
1538601005.8,286047003.5,E
1538601015.8,286047002.0,N
1538601035.6,286046997.3,P
1538601055.4,286046995.1,N
1538601075.3,286046996.7,N
1538601095.1,286046996.7,N
1538601115.8,286046995.8,N
1538601135.7,286046997.0,N
1538601155.5,286046997.0,N
1538601175.4,286046996.7,N
1538601195.2,286046996.5,N
1538601215.0,286046996.7,N
1538601215.9,286046996.7,N
1538601235.8,286046993.9,Y
1538601255.6,286046998.2,P
1538601275.4,286047002.3,P
1538601295.3,286046998.5,N
1538601315.1,286047000.9,N
1538601335.9,286047000.2,N
1538601355.7,286047002.3,N
1538601375.5,286047004.2,N
1538601395.4,286047000.2,N
1538601415.2,286046999.7,N
1538601435.0,286047000.5,N
1538601435.9,286047000.5,N
1538601455.8,286047001.6,N
1538601475.6,286047001.2,N
1538601495.4,286047001.1,N
1538601515.3,286046998.9,N
1538601535.1,286047003.6,N
1538601555.9,286047002.9,N
1538601575.7,286047004.2,N
1538601595.5,286047000.5,N
1538601615.4,286047004.3,N
1538601635.2,286047000.3,N
1538601655.0,286046998.7,N
1538601655.9,286046998.7,N
1538601675.8,286046995.3,N
1538601695.6,286046997.7,N
1538601715.5,286046999.5,N
1538601735.3,286046999.1,N
1538601755.1,286046998.5,N
1538601775.9,286046999.4,N
1538601795.7,286046997.5,N
1538601815.5,286046995.6,N
1538601835.4,286046994.8,N
1538601855.2,286046992.8,N
1538601875.1,286046990.4,Y
1538601876.0,286046990.4,P
1538601895.8,286046994.6,N
1538601915.6,286046997.7,N
1538601935.5,286046999.1,N
1538601955.3,286047002.6,N
1538601975.1,286047000.6,N
1538601995.9,286046998.2,N
1538602015.7,286046999.9,N
1538602035.6,286046998.4,N
1538602055.4,286046997.0,N
1538602075.2,286046998.8,N
1538602095.1,286046996.5,N
1538602096.0,286046996.5,N
1538602115.8,286046999.0,N
1538602135.6,286046998.6,N
1538602155.5,286046999.3,N
1538602175.3,286047000.0,N
1538602195.2,286046999.6,N
1538602215.9,286046998.4,N
1538602235.7,286047001.2,N
1538602255.6,286046998.4,N
1538602275.4,286046996.9,N
1538602295.2,286046996.5,N
1538602315.1,286046997.5,N
1538602316.0,286046997.5,N
1538602335.6,286046995.4,N
1538602355.4,286046995.1,N
1538602375.3,286046995.1,N
1538602395.1,286046997.2,N
1538602415.9,286046994.9,N
1538602435.7,286046995.1,N
1538602455.5,286046996.1,N
1538602475.4,286046995.3,N
1538602495.2,286046997.3,N
1538602515.0,286046995.6,N
1538602516.0,286046995.6,N
1538602535.8,286046995.9,N
1538602555.6,286046995.2,N
1538602575.5,286046993.8,Y
1538602595.3,286046997.2,P
1538602615.1,286046995.4,P
1538602635.9,286046995.9,P
1538602655.7,286046995.6,Y
1538602675.6,286047004.1,P
1538602695.4,286047002.4,N
1538602715.2,286047000.2,N
1538602735.1,286047002.4,N
1538602736.0,286047002.4,N
1538602755.8,286046998.3,N
1538602775.6,286046998.7,N
1538602795.5,286047000.9,N
1538602815.3,286046998.2,N
1538602835.2,286046998.3,N
1538602855.9,286047000.9,N
1538602875.7,286047001.0,N
1538602895.6,286047002.2,N
1538602915.4,286047004.1,N
1538602935.2,286047003.7,N
1538602955.1,286047003.8,N
1538602956.0,286047003.8,N
1538602975.8,286046999.7,N
1538602995.7,286047004.2,N
1538603015.5,286047002.7,N
1538603035.3,286047000.1,N
1538603055.2,286046999.7,N
1538603075.9,286047004.2,N
1538603095.7,286047001.8,N
1538603115.6,286047002.9,N
1538603135.4,286047003.5,N
1538603155.2,286047005.8,N
1538603175.1,286047003.9,N
1538603176.0,286047003.9,N
1538603195.8,286047001.3,N
1538603215.7,286047006.0,N
1538603235.5,286047007.2,Y
1538603255.3,286047002.3,P
1538603275.2,286047002.1,P
1538603295.0,286047001.8,P
1538603295.9,286047001.8,Y
1538603315.7,286047001.7,P
1538603335.6,286047001.4,P
1538603355.4,286047002.3,P
1538603375.3,286047002.7,Y
1538603395.1,286046996.5,P
1538603396.0,286046996.5,N
1538603415.8,286046999.3,N
1538603435.7,286046996.7,N
1538603455.5,286046996.5,N
1538603475.4,286046997.0,N
1538603495.2,286046999.3,N
1538603515.0,286046998.6,N
1538603515.9,286046998.6,N
1538603535.8,286046997.8,N
1538603555.6,286046997.2,N
1538603575.4,286046998.0,N
1538603595.3,286046999.2,N
1538603615.1,286046999.2,N
1538603635.8,286046997.2,N
1538603655.7,286046999.4,N
1538603675.5,286046999.3,N
1538603695.4,286046999.0,N
1538603715.2,286047000.0,N
1538603735.0,286046998.1,N
1538603735.9,286046998.1,N
1538603755.8,286046999.4,N
1538603775.6,286046996.5,N
1538603795.4,286046999.4,N
1538603815.3,286046997.1,N
1538603835.1,286046997.6,N
1538603855.9,286046995.1,Y
1538603875.7,286047001.0,P
1538603895.5,286047001.6,N
1538603915.4,286047005.5,P
1538603935.2,286047003.2,N
1538603955.0,286047001.4,N
1538603955.9,286047001.4,N
1538603975.8,286047005.1,N
1538603995.6,286047006.0,N
